Flag Weather past 2 weeks in Florianópolis, Santa Catarina, Brazil

Now
75 °F

Passing clouds.


Feels Like: 77 °F
Forecast: 67 / 78 °F
Wind: 9 mph from South

Location: Florianopolis Aeroporto

Current Time: Nov 22, 2014 at 11:20:43 PM

Latest Report: Nov 22, 2014 at 11:00 PM


Visibility: N/A

Pressure: 29.86 "Hg

Humidity: 65%

Dew point: 63 °F

Location of FlorianópolisLocation

Historic Weather in Florianópolis — Graph

°F

Florianópolis temperature yesterday

Maximum temperature yesterday: 82 °F (at 3:00 PM)
Minimum temperature yesterday: 73 °F (at 12:00 AM)
Average temperature yesterday: 76 °F

Past Weeks' High & Low Weather Summary

 TemperatureHumidityPressure
High90 °F (Nov 22, 5:00 PM)100% (Nov 8, 12:00 AM)30.12 "Hg (Nov 8, 12:00 AM)
Low61 °F (Nov 15, 4:00 AM)28% (Nov 17, 5:00 PM)29.68 "Hg (Nov 12, 6:00 PM)
Average74 °F73%29.94 "Hg
* Reported Nov 7 10:00 PM — Nov 22 10:00 PM, Florianópolis, Weather by CustomWeather, © 2014

Note: Actual official high and low records may vary slightly from our data, if they occured in-between our weather recording intervals... More about our weather records

Advertising

Florianópolis weather history for previous 24 hours

 ConditionsComfort  
Time TempWeatherWind HumidityBarometerVisibility
10:00 PM
Nov 22
75 °FPassing clouds.12 mph69%29.86 "HgN/A
9:00 PM75 °FPassing clouds.15 mph74%29.83 "HgN/A
8:00 PM77 °FPassing clouds.12 mph79%29.80 "HgN/A
7:00 PM79 °FScattered clouds.9 mph74%29.74 "HgN/A
6:00 PM86 °FScattered clouds.8 mph66%29.71 "HgN/A
5:00 PM90 °FScattered clouds.5 mph55%29.68 "HgN/A
4:00 PM88 °FScattered clouds.9 mph59%29.71 "HgN/A
3:00 PM86 °FScattered clouds.13 mph62%29.74 "HgN/A
2:00 PM82 °FScattered clouds.16 mph70%29.74 "HgN/A
1:00 PM81 °FScattered clouds.12 mph74%29.77 "HgN/A
12:00 PM79 °FScattered clouds.14 mph79%29.77 "HgN/A
11:00 AM77 °FScattered clouds.15 mph89%29.80 "HgN/A
10:00 AM75 °FScattered clouds.16 mph89%29.80 "HgN/A
9:00 AM75 °FScattered clouds.15 mph94%29.80 "HgN/A
8:00 AM73 °FScattered clouds.8 mph94%29.77 "HgN/A
7:00 AM73 °FLight rain. Scattered clouds.12 mph94%29.80 "Hg5 mi
6:05 AM72 °FRain. Passing clouds.8 mph100%29.80 "Hg3 mi
6:00 AM72 °FLight rain. Partly cloudy.9 mph100%29.80 "Hg4 mi
5:00 AM72 °FPartly cloudy.7 mph100%29.80 "HgN/A
4:00 AM73 °FPartly cloudy.8 mph94%29.80 "HgN/A
3:00 AM73 °FPassing clouds.7 mph94%29.83 "HgN/A
2:00 AM73 °FLight rain. Partly cloudy.8 mph94%29.89 "HgN/A
1:00 AM73 °FLight rain. Partly cloudy.9 mph94%29.89 "HgN/A
12:00 AM75 °FPassing clouds.14 mph83%29.89 "HgN/A
11:00 PM
Nov 21
75 °FPassing clouds.13 mph83%29.89 "HgN/A
Weather by CustomWeather, © 2014

See weather overviewHow to use our weather pages